EW4633 Weather Reports


time (UTC)temp
C
wind
direction
speed
KPH
gust
KPH
rain 1hr
cm
rain 24hr
cm
rain mn
cm
humidity
%
barometer
mb
20260507180649 15 277 3.2 9.7 0.00 0.00 0.00 45 1011.6
20260507180147 14 318 4.8 17.7 0.00 0.00 0.00 46 1011.7
20260507175646 14 346 6.4 17.7 0.00 0.00 0.00 42 1011.6
20260507175145 14 61 4.8 17.7 0.00 0.00 0.00 44 1011.8
20260507174909 15 5 3.2 11.3 0.00 0.00 0.00 44 1011.8
20260507174146 15 196 3.2 11.3 0.00 0.00 0.00 44 1011.9
20260507173645 14 125 4.8 17.7 0.00 0.00 0.00 44 1011.9
20260507173146 13 237 6.4 17.7 0.00 0.00 0.00 45 1012.0
20260507172646 13 8 4.8 11.3 0.00 0.00 0.00 45 1012.0
20260507172408 14 330 4.8 12.9 0.00 0.00 0.00 44 1012.1
20260507171646 13 320 4.8 12.9 0.00 0.00 0.00 44 1012.2
20260507171139 13 331 4.8 12.9 0.00 0.00 0.00 46 1012.2
20260507170635 13 37 4.8 16.1 0.00 0.00 0.00 49 1012.3
20260507170129 13 28 4.8 16.1 0.00 0.00 0.00 45 1012.4
20260507165622 13 310 4.8 11.3 0.00 0.00 0.00 45 1012.5
20260507165116 13 24 4.8 9.7 0.00 0.00 0.00 47 1012.5
20260507164609 13 294 4.8 12.9 0.00 0.00 0.00 46 1012.5
20260507164104 13 17 6.4 14.5 0.00 0.00 0.00 48 1012.4
20260507163558 13 0 6.4 14.5 0.00 0.00 0.00 45 1012.5
20260507163313 13 324 6.4 14.5 0.00 0.00 0.00 45 1012.5
20260507162547 13 322 6.4 14.5 0.00 0.00 0.00 46 1012.6
20260507162040 13 31 6.4 12.9 0.00 0.00 0.00 46 1012.4
20260507161534 12 10 6.4 14.5 0.00 0.00 0.00 45 1012.5
20260507161028 12 33 4.8 14.5 0.00 0.00 0.00 45 1012.6
20260507160743 13 311 4.8 9.7 0.00 0.00 0.00 46 1012.6
20260507160016 12 15 4.8 14.5 0.00 0.00 0.00 46 1012.6
20260507155510 12 341 4.8 14.5 0.00 0.00 0.00 47 1012.6
20260507155004 12 308 3.2 11.3 0.00 0.00 0.00 49 1012.6
20260507154457 12 343 4.8 11.3 0.00 0.00 0.00 52 1012.5
20260507153952 12 13 4.8 11.3 0.00 0.00 0.00 49 1012.5
20260507153446 12 24 4.8 11.3 0.00 0.00 0.00 49 1012.5
20260507152940 12 352 4.8 8.0 0.00 0.00 0.00 48 1012.5
20260507152434 12 8 4.8 14.5 0.00 0.00 0.00 51 1012.5
20260507151928 12 0 4.8 14.5 0.00 0.00 0.00 48 1012.5
20260507151648 12 328 3.2 12.9 0.00 0.00 0.00 50 1012.5
20260507151139 12 303 3.2 9.7 0.00 0.00 0.00 54 1012.6
20260507150409 11 301 4.8 9.7 0.00 0.00 0.00 50 1012.6
20260507145904 11 49 4.8 12.9 0.00 0.00 0.00 51 1012.5
20260507145359 11 33 3.2 12.9 0.00 0.00 0.00 51 1012.5
20260507144852 12 310 1.6 9.7 0.00 0.00 0.00 51 1012.5
20260507144346 12 302 1.6 8.0 0.00 0.00 0.00 54 1012.5
20260507143840 11 356 3.2 9.7 0.00 0.00 0.00 53 1012.5
20260507143333 11 230 3.2 11.3 0.00 0.00 0.00 52 1012.5
20260507142828 11 15 4.8 11.3 0.00 0.00 0.00 52 1012.5
20260507142322 11 57 6.4 14.5 0.00 0.00 0.00 51 1012.6
20260507141815 11 346 6.4 14.5 0.00 0.00 0.00 48 1012.6
20260507141310 11 337 4.8 20.9 0.00 0.00 0.00 49 1012.7
20260507140804 11 262 3.2 20.9 0.00 0.00 0.00 51 1012.7
20260507140257 11 317 3.2 9.7 0.00 0.00 0.00 53 1012.7
20260507140018 11 282 3.2 8.0 0.00 0.00 0.00 52 1012.6
20260507135245 10 293 4.8 8.0 0.00 0.00 0.00 51 1012.6
20260507135226 10 337 3.2 11.3 0.00 0.00 0.00 55 1012.5
20260507134233 10 332 3.2 11.3 0.00 0.00 0.00 53 1012.6
20260507133729 10 330 3.2 11.3 0.00 0.00 0.00 54 1012.6
20260507133222 10 33 3.2 11.3 0.00 0.00 0.00 54 1012.6
20260507132716 10 14 3.2 9.7 0.00 0.00 0.00 56 1012.5
20260507132210 10 22 3.2 14.5 0.00 0.00 0.00 55 1012.5
20260507131704 10 325 3.2 14.5 0.00 0.00 0.00 58 1012.6
20260507131640 10 26 3.2 12.9 0.00 0.00 0.00 57 1012.6
20260507130652 10 3 1.6 8.0 0.00 0.00 0.00 62 1012.5
20260507130146 9 23 3.2 8.0 0.00 0.00 0.00 64 1012.4
20260507125903 9 31 3.2 8.0 0.00 0.00 0.00 65 1012.5
20260507125133 9 334 3.2 8.0 0.00 0.00 0.00 64 1012.5
20260507125111 8 42 1.6 6.4 0.00 0.00 0.00 66 1012.5
20260507124121 8 24 1.6 6.4 0.00 0.00 0.00 67 1012.4
20260507123616 8 36 1.6 4.8 0.00 0.00 0.00 69 1012.5
20260507123109 8 8 1.6 4.8 0.00 0.00 0.00 70 1012.6
20260507122604 7 306 1.6 4.8 0.00 0.00 0.00 70 1012.7
20260507122057 7 309 1.6 4.8 0.00 0.00 0.00 73 1012.6
20260507121552 7 29 1.6 4.8 0.00 0.00 0.00 74 1012.6
20260507121046 7 29 1.6 4.8 0.00 0.00 0.00 78 1012.5
20260507120540 6 22 1.6 4.8 0.00 0.00 0.00 77 1012.5
20260507120034 6 354 1.6 3.2 0.00 0.00 0.00 77 1012.5
20260507115528 6 344 1.6 3.2 0.00 0.00 0.00 77 1012.5
20260507115021 6 349 1.6 3.2 0.00 0.00 0.00 76 1012.5
20260507114516 6 318 0.0 3.2 0.00 0.00 0.00 75 1012.5
20260507114233 6 355 1.6 4.8 0.00 0.00 0.00 76 1012.5
20260507113731 6 315 1.6 4.8 0.00 0.00 0.00 74 1012.5
20260507112957 6 346 1.6 3.2 0.00 0.00 0.00 74 1012.5
20260507112458 6 318 1.6 4.8 0.00 0.00 0.00 73 1012.5
20260507111954 6 22 1.6 4.8 0.00 0.00 0.00 73 1012.5
20260507111453 6 356 1.6 4.8 0.00 0.00 0.00 73 1012.4
20260507110953 6 21 1.6 4.8 0.00 0.00 0.00 73 1012.4
20260507110454 6 13 1.6 4.8 0.00 0.00 0.00 73 1012.3
20260507105951 6 340 1.6 8.0 0.00 0.00 0.00 73 1012.2
20260507105713 6 333 1.6 8.0 0.00 0.00 0.00 73 1012.1
20260507104950 6 19 1.6 4.8 0.00 0.00 0.00 73 1012.1
20260507104449 6 10 3.2 6.4 0.00 0.00 0.00 73 1012.1
20260507103948 6 357 1.6 6.4 0.00 0.00 0.00 73 1011.9
20260507103449 6 337 3.2 8.0 0.00 0.00 0.00 73 1011.9
20260507102949 6 347 3.2 8.0 0.00 0.00 0.00 73 1011.9
20260507102449 6 0 3.2 4.8 0.00 0.00 0.00 73 1011.9
20260507101950 6 287 3.2 8.0 0.00 0.00 0.00 72 1011.9
20260507101446 6 2 3.2 8.0 0.00 0.00 0.00 72 1011.9
20260507100944 6 356 3.2 8.0 0.00 0.00 0.00 72 1012.0
20260507100446 6 22 3.2 6.4 0.00 0.00 0.00 73 1011.9
20260507095945 6 15 3.2 8.0 0.00 0.00 0.00 72 1011.9
20260507095444 6 2 3.2 8.0 0.00 0.00 0.00 72 1011.9
20260507094944 6 0 4.8 9.7 0.00 0.00 0.00 72 1011.9
20260507094446 6 350 4.8 9.7 0.00 0.00 0.00 72 1011.9
20260507093945 6 11 4.8 8.0 0.00 0.00 0.00 72 1011.9
20260507093446 6 30 4.8 9.7 0.00 0.00 0.00 72 1011.9
20260507092941 6 17 3.2 9.7 0.00 0.00 0.00 73 1011.9
20260507092442 6 28 4.8 11.3 0.00 0.00 0.00 73 1011.9
20260507091942 6 17 4.8 11.3 0.00 0.00 0.00 73 1011.9
20260507091442 7 358 4.8 12.9 0.00 0.00 0.00 73 1011.8
20260507090941 7 2 4.8 12.9 0.00 0.00 0.00 73 1011.8
20260507090658 7 311 3.2 9.7 0.00 0.00 0.00 73 1011.7
20260507085942 7 340 3.2 9.7 0.00 0.00 0.00 73 1011.7
20260507085441 7 331 3.2 8.0 0.00 0.00 0.00 73 1011.7
20260507084941 7 21 3.2 8.0 0.00 0.00 0.00 73 1011.7
20260507084438 7 26 3.2 9.7 0.00 0.00 0.00 73 1011.6
20260507083937 7 9 3.2 9.7 0.00 0.00 0.00 73 1011.5
20260507083438 7 357 3.2 8.0 0.00 0.00 0.00 74 1011.5
20260507082938 7 2 3.2 8.0 0.00 0.00 0.00 74 1011.4
20260507082437 7 4 3.2 8.0 0.00 0.00 0.00 75 1011.4
20260507081934 7 6 3.2 8.0 0.00 0.00 0.00 75 1011.4
20260507081434 7 351 3.2 6.4 0.00 0.00 0.00 75 1011.4
20260507081155 7 26 3.2 6.4 0.00 0.00 0.00 75 1011.4
20260507080433 7 12 3.2 6.4 0.00 0.00 0.00 75 1011.4
20260507075933 7 358 3.2 11.3 0.00 0.00 0.00 75 1011.4
20260507075921 7 358 3.2 11.3 0.00 0.00 0.00 75 1011.4
20260507074931 7 30 3.2 4.8 0.00 0.00 0.00 75 1011.4
20260507074655 7 10 3.2 4.8 0.00 0.00 0.00 75 1011.4
20260507073926 7 350 1.6 4.8 0.00 0.00 0.00 75 1011.4
20260507073419 7 29 3.2 6.4 0.00 0.00 0.00 75 1011.4
20260507073136 8 25 3.2 6.4 0.00 0.00 0.00 75 1011.4
20260507072407 8 357 1.6 6.4 0.00 0.00 0.00 75 1011.4
20260507072125 8 353 3.2 6.4 0.00 0.00 0.00 75 1011.3
20260507071355 8 5 3.2 6.4 0.00 0.00 0.00 74 1011.3
20260507070849 8 5 1.6 4.8 0.00 0.00 0.00 74 1011.4
20260507070343 8 351 1.6 4.8 0.00 0.00 0.00 74 1011.4
20260507065837 8 0 1.6 4.8 0.00 0.00 0.00 74 1011.4
20260507065331 8 353 1.6 4.8 0.00 0.00 0.00 74 1011.4
20260507064824 8 346 1.6 4.8 0.00 0.00 0.00 74 1011.5
20260507064537 8 346 1.6 4.8 0.00 0.00 0.00 73 1011.5
20260507063816 8 23 1.6 4.8 0.00 0.00 0.00 73 1011.6
20260507063316 8 331 1.6 4.8 0.00 0.00 0.00 73 1011.6
20260507062817 8 325 1.6 6.4 0.00 0.00 0.00 72 1011.7
20260507062318 8 17 1.6 6.4 0.00 0.00 0.00 72 1011.7
20260507061815 8 308 3.2 6.4 0.00 0.00 0.00 72 1011.6
20260507061314 8 337 3.2 6.4 0.00 0.00 0.00 72 1011.7
20260507060813 8 352 1.6 6.4 0.00 0.00 0.00 72 1011.6
20260507060314 9 26 1.6 6.4 0.00 0.00 0.00 72 1011.6
20260507055811 9 348 3.2 9.7 0.00 0.00 0.00 72 1011.6
20260507055312 9 303 3.2 9.7 0.00 0.00 0.00 71 1011.7
20260507054811 9 322 1.6 6.4 0.00 0.00 0.00 72 1011.7
20260507054312 9 11 1.6 6.4 0.00 0.00 0.00 72 1011.7
20260507053811 9 11 3.2 6.4 0.00 0.00 0.00 72 1011.7
20260507053312 9 337 3.2 9.7 0.00 0.00 0.00 72 1011.7
20260507052811 9 330 3.2 9.7 0.00 0.00 0.00 72 1011.7
20260507052309 9 10 1.6 6.4 0.00 0.00 0.00 72 1011.7
20260507051807 9 307 1.6 6.4 0.00 0.00 0.00 73 1011.7
20260507051307 9 332 1.6 6.4 0.00 0.00 0.00 72 1011.5
20260507050801 9 7 1.6 6.4 0.00 0.00 0.00 72 1011.5
20260507050255 10 308 1.6 6.4 0.00 0.00 0.00 72 1011.6
20260507045749 10 315 1.6 4.8 0.00 0.00 0.00 71 1011.7
20260507045243 10 329 1.6 8.0 0.00 0.00 0.00 70 1011.7
20260507044737 10 345 1.6 8.0 0.00 0.00 0.00 70 1011.8
20260507044230 10 310 1.6 6.4 0.00 0.00 0.00 69 1011.8
20260507043725 10 294 1.6 6.4 0.00 0.00 0.00 69 1011.8
20260507043221 10 345 1.6 6.4 0.00 0.00 0.00 69 1011.8
20260507042712 10 349 3.2 6.4 0.00 0.00 0.00 69 1011.7
20260507042206 10 266 1.6 8.0 0.00 0.00 0.00 69 1011.7
20260507041701 10 340 1.6 8.0 0.00 0.00 0.00 70 1011.7
20260507041155 10 323 1.6 6.4 0.00 0.00 0.00 70 1011.7
20260507040649 10 270 1.6 4.8 0.00 0.00 0.00 70 1011.7
20260507040409 10 294 1.6 4.8 0.00 0.00 0.00 70 1011.7
20260507035637 10 269 0.0 3.2 0.00 0.00 0.00 70 1011.7
20260507035131 10 257 0.0 3.2 0.00 0.00 0.00 69 1011.7
20260507034624 10 257 0.0 3.2 0.00 0.00 0.00 69 1011.7
20260507034118 10 257 0.0 3.2 0.00 0.00 0.00 68 1011.7
20260507033613 10 271 0.0 3.2 0.00 0.00 0.00 68 1011.7
20260507033106 10 308 0.0 3.2 0.00 0.00 0.00 68 1011.6
20260507032601 10 292 0.0 3.2 0.00 0.00 0.00 68 1011.6
20260507032055 11 292 0.0 4.8 0.00 0.00 0.00 68 1011.6
20260507031549 11 294 0.0 4.8 0.00 0.00 0.00 68 1011.6
20260507031042 11 255 0.0 6.4 0.00 0.00 0.00 67 1011.6
20260507030805 11 330 0.0 6.4 0.00 0.00 0.00 67 1011.6
20260507030030 11 326 0.0 3.2 0.00 0.00 0.00 68 1011.7
20260507025524 11 301 1.6 4.8 0.00 0.00 0.00 68 1011.7
20260507025019 11 300 1.6 4.8 0.00 0.00 0.00 68 1011.7
20260507024742 11 290 1.6 3.2 0.00 0.00 0.00 68 1011.7
20260507024007 11 313 0.0 3.2 0.00 0.00 0.00 68 1011.6
20260507023502 11 47 0.0 3.2 0.00 0.00 0.00 68 1011.6
20260507022954 11 329 0.0 3.2 0.00 0.00 0.00 68 1011.6
20260507022449 11 287 0.0 3.2 0.00 0.00 0.00 68 1011.6
20260507021943 11 317 0.0 3.2 0.00 0.00 0.00 69 1011.6
20260507021438 11 285 0.0 3.2 0.00 0.00 0.00 69 1011.6
20260507020930 11 280 0.0 3.2 0.00 0.00 0.00 68 1011.5
20260507020649 11 266 0.0 3.2 0.00 0.00 0.00 68 1011.5
20260507015919 11 339 0.0 3.2 0.00 0.00 0.00 67 1011.4
20260507015412 11 325 0.0 3.2 0.00 0.00 0.00 67 1011.3
20260507015134 11 335 0.0 3.2 0.00 0.00 0.00 66 1011.3
20260507014400 11 318 0.0 3.2 0.00 0.00 0.00 66 1011.3
20260507014119 12 318 1.6 4.8 0.00 0.00 0.00 66 1011.2
20260507013349 12 293 1.6 4.8 0.00 0.00 0.00 66 1010.9
20260507012842 12 314 1.6 3.2 0.00 0.00 0.00 66 1011.0
20260507012601 12 313 1.6 3.2 0.00 0.00 0.00 66 1010.9
20260507011831 12 332 1.6 3.2 0.00 0.00 0.00 66 1010.8
20260507011326 12 323 1.6 3.2 0.00 0.00 0.00 66 1010.8
20260507010826 12 323 1.6 4.8 0.00 0.00 0.00 66 1010.7
20260507010326 12 341 1.6 4.8 0.00 0.00 0.00 65 1010.8
20260507005825 12 332 1.6 4.8 0.00 0.00 0.00 65 1010.9
20260507005553 12 308 1.6 4.8 0.00 0.00 0.00 66 1010.8
20260507004822 12 300 1.6 3.2 0.00 0.00 0.00 66 1010.8
20260507004325 12 300 1.6 4.8 0.00 0.00 0.00 65 1010.8
20260507003822 12 313 0.0 4.8 0.00 0.00 0.00 65 1010.8
20260507003323 12 343 0.0 0.0 0.00 0.00 0.00 65 1010.8
20260507002822 12 343 0.0 0.0 0.00 0.00 0.00 65 1010.8
20260507002322 12 342 0.0 0.0 0.00 0.00 0.00 64 1010.6
20260507001823 12 343 0.0 0.0 0.00 0.00 0.00 64 1010.5
20260507001323 12 343 0.0 0.0 0.00 0.00 0.00 63 1010.4
20260507000821 13 343 0.0 1.6 0.00 0.00 0.00 63 1010.4
20260507000321 13 343 0.0 1.6 0.00 0.00 0.00 63 1010.3
20260507000310 13 343 0.0 0.0 0.00 0.00 0.00 62 1010.3
20260506235320 13 343 0.0 1.6 0.00 0.00 0.00 63 1010.3
20260506234819 13 343 0.0 3.2 0.00 0.00 0.00 62 1010.3
20260506234313 13 346 0.0 4.8 0.00 0.00 0.00 62 1010.1
20260506233814 13 348 1.6 4.8 0.00 0.00 0.00 62 1010.2
20260506233311 13 348 1.6 4.8 0.00 0.00 0.00 61 1010.2
20260506232813 13 330 1.6 4.8 0.00 0.00 0.00 61 1010.3
20260506232310 13 343 1.6 3.2 0.00 0.00 0.00 62 1010.2
20260506231809 13 349 1.6 3.2 0.00 0.00 0.00 62 1010.2
20260506231309 13 358 3.2 6.4 0.00 0.00 0.00 63 1010.0
20260506230808 13 0 3.2 14.5 0.00 0.00 0.00 63 1010.0
20260506230308 13 349 3.2 14.5 0.00 0.00 0.00 62 1010.0
20260506225808 13 19 3.2 8.0 0.00 0.00 0.00 61 1010.1
20260506225309 13 27 3.2 8.0 0.00 0.00 0.00 61 1010.0
20260506224808 13 19 3.2 6.4 0.00 0.00 0.00 61 1010.1
20260506224530 13 48 3.2 6.4 0.00 0.00 0.00 60 1010.1
20260506223809 14 27 3.2 6.4 0.00 0.00 0.00 60 1010.1
20260506223309 14 320 1.6 6.4 0.00 0.00 0.00 58 1010.0
20260506222806 14 353 1.6 3.2 0.00 0.00 0.00 61 1010.2
20260506222753 13 353 1.6 4.8 0.00 0.00 0.00 60 1010.2
20260506221802 13 6 1.6 4.8 0.00 0.00 0.00 59 1010.2
20260506221303 13 3 1.6 4.8 0.00 0.00 0.00 61 1010.3
20260506220803 13 335 1.6 4.8 0.00 0.00 0.00 60 1010.2
20260506220301 13 30 3.2 4.8 0.00 0.00 0.00 60 1010.2
20260506215802 13 30 3.2 4.8 0.00 0.00 0.00 60 1010.3
20260506215306 14 228 1.6 6.4 0.00 0.00 0.00 59 1010.5
20260506214802 14 228 1.6 8.0 0.00 0.00 0.00 59 1010.4
20260506214301 14 327 1.6 8.0 0.00 0.00 0.00 56 1010.4
20260506213802 14 352 1.6 4.8 0.00 0.00 0.00 57 1010.2
20260506213301 14 351 1.6 4.8 0.00 0.00 0.00 57 1010.2
20260506212803 14 38 3.2 6.4 0.00 0.00 0.00 57 1010.1
20260506212306 14 35 1.6 6.4 0.00 0.00 0.00 57 1010.1
20260506211802 14 357 1.6 6.4 0.00 0.00 0.00 57 1010.2
20260506211303 14 356 1.6 6.4 0.00 0.00 0.00 59 1010.2
20260506210801 14 23 1.6 4.8 0.00 0.00 0.00 58 1010.1
20260506210303 14 23 1.6 4.8 0.00 0.00 0.00 60 1010.0
20260506205759 14 308 1.6 4.8 0.00 0.00 0.00 59 1009.9
20260506205258 14 354 3.2 4.8 0.00 0.00 0.00 58 1010.0
20260506204759 14 10 3.2 8.0 0.00 0.00 0.00 59 1009.9
20260506204257 14 5 1.6 8.0 0.00 0.00 0.00 59 1009.9
20260506203759 14 359 1.6 4.8 0.00 0.00 0.00 58 1010.0
20260506203746 14 6 1.6 3.2 0.00 0.00 0.00 58 1010.0
20260506202757 14 351 0.0 3.2 0.00 0.00 0.00 60 1009.9
20260506202258 14 330 1.6 8.0 0.00 0.00 0.00 60 1010.0
20260506201759 14 297 3.2 8.0 0.00 0.00 0.00 58 1010.1
20260506201257 14 0 3.2 6.4 0.00 0.00 0.00 61 1010.2
20260506200758 14 3 1.6 3.2 0.00 0.00 0.00 62 1010.1
20260506200255 14 20 1.6 4.8 0.00 0.00 0.00 59 1010.0
20260506195755 14 333 1.6 4.8 0.00 0.00 0.00 59 1010.2
20260506195519 14 49 1.6 4.8 0.00 0.00 0.00 59 1010.1
20260506194753 13 6 1.6 6.4 0.00 0.00 0.00 60 1010.2
20260506194252 13 6 3.2 8.0 0.00 0.00 0.00 59 1010.1
20260506193751 13 11 3.2 9.7 0.00 0.00 0.00 58 1010.1
20260506193249 13 319 3.2 11.3 0.00 0.00 0.00 57 1010.2
20260506192748 14 16 3.2 11.3 0.00 0.00 0.00 55 1010.0
20260506192245 14 359 3.2 8.0 0.00 0.00 0.00 59 1010.0
20260506191746 14 10 4.8 8.0 0.00 0.00 0.00 58 1009.9
20260506191244 15 338 3.2 8.0 0.00 0.00 0.00 58 1009.8
20260506191002 15 12 1.6 8.0 0.00 0.00 0.00 60 1009.8
20260506190237 14 16 1.6 4.8 0.00 0.00 0.00 61 1009.8
20260506185732 14 16 3.2 4.8 0.00 0.00 0.00 59 1009.9
20260506185225 14 33 3.2 6.4 0.00 0.00 0.00 58 1009.9
20260506184720 13 18 3.2 8.0 0.00 0.00 0.00 59 1009.9
20260506184214 13 0 3.2 8.0 0.00 0.00 0.00 62 1009.9
20260506183708 13 57 3.2 11.3 0.00 0.00 0.00 61 1009.8
20260506183201 13 22 4.8 11.3 0.00 0.00 0.00 60 1009.9
20260506182656 13 36 4.8 11.3 0.00 0.00 0.00 59 1009.9
20260506182150 13 346 4.8 9.7 0.00 0.00 0.00 61 1009.8
20260506181644 13 333 3.2 8.0 0.00 0.00 0.00 60 1009.7
20260506181137 13 352 1.6 8.0 0.00 0.00 0.00 60 1009.8